Location: Góry Miechowskie
(50.3599°N, 20.1803°E)
Time: 01:54:40
(UTC+00:00)

Vanguard 2 - Pass Details

Date: 13 September 2024
Orbit: 552 x 2910 km, 32.9° (Epoch: 09 October)

Event Time Altitude Azimuth Distance (km) Brightness Sun altitude
Rises 02:15:59 0° 200° (SSW) 3,263 - -18.3°
Exits shadow 02:18:29 - 182° (S) 2,823 10.1 -18.0°
Reaches altitude 10° 02:19:59 10° 169° (S) 2,712 10.1 -17.8°
Maximum altitude 02:22:20 12° 148° (SSE) 2,800 10.4 -17.4°
Drops below altitude 10° 02:25:02 10° 127° (SE) 3,236 11.0 -17.1°
Sets 02:31:09 0° 102° (ESE) 4,853 12.5 -16.2°
